Theta_e
353 353 354 354 353 354 355 355 354 353 352 352 352 353 353 353 353 353 353 353 353 353 353 353 353 352 354 355 355 352 352 355 356 356 358 359 359 359 358 356 358 360 362 361 359 358 356 355 356 356 357 357 356 355 353 351 351 351 350 350 350 352 354 358 363 363 358 356 356 354 352 353 354 354 353 351 350 351 353 355 353 353 355 355 355
351 352 353 353 353 353 354 354 354 353 352 352 352 353 353 353 354 353 353 353 353 353 354 355 354 353 353 354 355 354 352 352 354 355 356 357 358 359 357 356 357 359 360 360 359 359 358 356 356 356 356 356 354 354 352 350 351 351 350 351 351 351 353 356 360 361 358 356 356 355 353 354 355 356 355 353 352 352 353 353 352 352 356 357 355
351 352 352 352 352 352 352 353 354 354 352 351 351 351 351 352 353 353 354 354 354 354 354 355 355 354 354 354 354 355 355 354 354 355 356 355 356 358 357 355 355 357 358 359 358 358 357 356 356 356 355 353 352 353 352 351 352 352 351 352 352 353 355 356 358 362 361 360 359 357 356 354 353 354 356 355 353 353 352 352 350 349 353 356 355
351 352 352 352 351 351 351 351 352 353 352 351 350 349 350 350 351 352 353 353 353 354 354 354 355 355 355 355 355 356 356 356 356 357 357 356 355 356 357 357 356 356 356 357 358 358 358 357 357 358 356 355 354 354 354 354 354 354 355 354 352 353 355 355 356 358 360 362 362 359 357 355 353 353 354 354 353 352 352 350 347 346 351 356 356
352 353 352 352 351 350 350 350 350 352 352 351 350 349 349 349 350 351 352 353 353 352 353 354 354 355 357 357 357 357 358 357 357 358 357 357 355 355 355 356 357 356 356 356 356 357 358 358 358 358 357 356 355 354 354 356 358 358 357 355 355 356 356 354 353 354 357 361 362 358 356 355 355 354 354 353 351 350 351 349 346 345 349 355 356
351 353 353 354 353 351 351 351 352 352 352 352 352 351 350 349 350 350 351 352 353 352 353 353 353 354 356 358 357 357 358 358 358 358 358 357 355 355 354 355 356 357 356 356 356 356 357 356 357 357 357 359 358 355 355 358 360 359 357 355 356 359 359 356 354 354 357 360 360 357 355 354 353 352 353 353 350 349 350 349 347 347 349 352 355
348 350 353 354 353 353 354 353 351 352 352 353 353 351 350 350 351 352 352 352 353 354 353 352 352 353 354 356 356 356 357 358 358 358 358 357 356 355 354 355 356 356 356 356 355 356 355 355 356 356 356 357 359 357 358 360 361 360 357 356 355 357 359 359 356 353 356 359 360 358 355 353 352 350 351 352 351 350 350 348 348 351 352 353 354
353 352 353 354 354 356 357 355 354 356 355 353 351 350 350 350 351 351 351 351 352 353 353 352 351 351 351 353 354 355 356 357 358 358 358 359 359 358 355 354 354 354 354 354 354 354 354 354 356 356 354 356 359 359 359 359 360 360 359 356 354 355 358 360 359 355 355 357 359 358 354 352 352 351 351 352 352 351 350 349 350 352 355 357 356
359 358 357 356 357 359 359 357 359 361 359 355 353 352 350 350 351 351 350 351 351 351 350 351 351 350 350 351 350 353 355 355 355 357 357 359 360 358 356 355 355 353 352 354 354 354 354 355 355 355 354 356 358 357 357 357 357 359 360 358 357 357 359 360 360 359 357 357 359 359 357 355 354 354 354 355 356 354 350 350 351 351 354 358 358
360 363 363 360 360 360 360 361 363 365 364 360 356 353 351 351 352 352 350 350 350 350 349 349 351 352 351 351 350 351 353 354 354 355 356 357 358 358 357 356 355 354 353 355 355 355 355 356 355 355 356 357 356 355 356 356 355 356 358 358 358 359 360 360 361 361 359 360 360 361 360 359 357 356 356 356 356 354 351 351 351 352 354 356 357
358 361 362 361 361 362 362 361 362 364 365 363 361 357 354 353 353 352 351 350 349 348 347 347 351 353 352 350 349 350 351 352 353 353 354 354 355 357 358 358 357 357 357 357 357 356 357 356 355 354 355 358 358 355 355 356 355 354 355 356 356 358 359 360 361 360 360 360 360 360 361 361 359 356 355 354 352 351 351 350 351 353 354 353 354
356 358 360 359 359 361 359 355 355 358 361 363 363 360 357 355 355 354 354 352 349 347 347 349 351 353 352 350 349 350 351 351 352 352 352 353 354 355 357 359 358 357 358 359 358 357 356 356 355 353 354 358 359 356 354 353 353 353 353 354 354 354 355 356 357 358 358 358 359 359 359 360 358 357 355 353 351 350 351 350 349 351 352 352 354
355 355 357 356 356 357 353 350 353 358 360 361 361 360 358 355 355 355 355 354 352 349 349 351 352 352 351 351 350 350 351 351 351 350 351 352 352 353 355 357 356 355 356 356 354 352 350 350 352 351 352 357 359 356 353 353 352 352 353 353 354 354 354 353 354 355 356 356 357 359 359 359 358 357 356 354 353 354 355 354 351 350 350 351 354
356 356 356 356 357 357 354 353 355 358 358 358 359 360 358 356 355 354 355 355 353 351 350 351 352 351 350 350 351 351 351 351 351 350 351 351 352 352 353 355 355 354 354 353 351 350 349 349 350 350 351 355 358 357 355 354 353 353 352 353 353 354 355 355 355 355 356 356 355 355 356 357 359 358 356 355 354 356 357 357 354 352 351 352 353
356 355 354 354 356 358 357 356 357 357 357 356 358 359 358 357 356 354 354 354 353 353 351 351 351 351 351 352 351 351 351 351 351 351 352 352 352 352 354 355 355 354 353 352 352 351 350 351 352 352 353 356 358 358 357 356 355 354 353 354 354 354 356 357 358 359 359 359 358 356 355 355 357 358 357 356 355 355 356 357 357 357 355 354 355
354 353 351 350 352 355 355 356 356 356 356 356 356 356 356 355 355 353 352 353 354 353 352 351 352 352 352 353 352 350 349 350 350 351 351 352 352 353 353 355 355 354 353 352 351 352 353 352 352 353 355 356 358 358 356 355 355 355 355 355 354 354 355 355 357 358 357 358 358 359 358 357 356 357 358 357 356 356 356 356 357 358 358 357 357
349 349 349 349 350 352 353 354 354 354 354 354 354 354 353 353 354 354 353 354 354 353 353 353 353 353 353 353 352 350 348 346 347 348 349 350 351 351 353 353 352 351 352 351 351 352 352 353 353 354 355 356 357 356 354 353 354 355 355 355 355 354 354 354 354 355 355 354 355 357 359 359 358 358 359 358 356 356 355 353 353 354 354 354 355
345 346 346 347 349 351 351 352 352 351 352 352 352 351 351 351 352 354 353 354 354 354 354 354 354 354 352 351 350 348 345 344 344 345 347 348 348 349 351 353 352 352 352 350 350 350 350 352 353 354 355 356 356 355 353 352 354 356 355 355 355 354 353 353 353 353 352 352 354 356 358 358 357 358 359 358 357 355 352 350 350 351 349 349 350
342 343 343 344 345 348 348 348 348 349 350 350 349 348 347 347 349 351 352 352 353 353 353 353 352 352 351 348 346 345 343 342 342 344 345 346 346 346 347 350 352 353 352 350 350 351 349 349 350 350 351 352 353 352 351 350 351 352 353 353 353 353 352 352 351 351 351 351 352 354 356 355 355 355 356 356 356 354 350 349 350 348 347 347 348
340 340 341 341 342 343 343 344 345 345 346 346 345 345 345 344 346 349 351 351 351 350 350 349 349 349 348 346 344 342 342 341 341 343 344 345 346 346 347 347 348 350 351 350 351 350 349 348 347 346 346 347 348 348 348 347 348 347 348 349 350 350 350 350 351 351 351 351 352 353 354 353 353 353 353 353 353 353 350 349 349 347 347 348 348
338 338 339 340 339 340 340 341 341 342 342 342 342 343 344 344 345 348 349 349 348 346 345 345 344 342 341 341 340 339 338 338 338 340 342 344 345 345 346 346 346 347 349 349 349 348 347 346 345 344 344 345 345 346 346 345 345 344 344 345 346 346 347 347 348 349 349 350 351 351 352 351 351 351 351 349 350 351 351 351 349 347 347 348 348
336 337 337 338 338 339 339 339 339 338 339 339 339 340 341 342 343 344 343 342 342 340 338 338 337 335 334 333 332 332 331 331 333 336 338 339 340 341 342 340 340 343 347 347 347 346 345 345 345 343 343 342 342 342 341 341 340 340 341 341 342 343 343 344 344 345 346 347 349 348 348 348 349 348 347 345 345 346 348 348 348 347 347 348 348
333 334 335 336 336 337 337 337 337 337 337 337 337 337 338 338 338 338 337 336 336 333 332 333 332 330 328 326 325 325 325 326 329 331 331 331 331 330 331 332 335 340 342 340 340 340 339 340 341 341 339 338 338 338 338 337 337 336 337 338 338 339 340 341 342 343 343 345 347 347 346 346 346 346 345 345 344 342 342 342 343 343 342 342 342
331 331 331 332 334 334 333 334 334 335 335 335 335 335 336 335 334 334 334 334 332 330 329 329 328 326 324 323 323 324 323 323 325 327 327 326 324 322 322 324 330 333 331 327 326 328 328 329 331 333 334 335 336 336 336 335 334 334 334 336 337 338 338 338 340 341 342 343 344 345 345 345 346 346 346 345 343 341 339 340 341 340 338 338 337
331 331 331 331 332 332 332 332 332 332 333 333 334 334 334 334 333 333 332 331 330 329 328 327 327 326 325 323 321 322 323 323 323 324 324 324 323 321 317 318 321 322 319 317 318 320 323 326 330 332 333 334 334 335 335 334 333 333 333 334 336 336 336 336 336 337 338 339 340 341 343 343 344 345 344 343 341 339 337 336 336 336 335 334 334
328 329 330 331 331 331 331 330 330 331 331 331 332 332 332 332 332 331 331 332 331 330 329 328 328 327 326 324 322 320 321 321 321 321 320 321 322 320 317 317 320 320 318 317 320 324 328 331 333 333 333 334 334 335 334 333 333 333 333 333 334 334 334 333 333 334 335 336 337 338 340 341 341 341 340 339 337 335 334 333 332 331 331 330 330
327 327 328 330 331 331 330 329 328 328 329 328 329 328 328 328 328 327 327 328 329 330 331 330 330 329 328 328 325 320 315 313 314 315 315 316 318 318 317 318 322 322 318 317 322 330 333 333 333 333 334 335 335 334 333 332 333 333 334 333 333 334 334 334 333 333 335 335 335 335 337 338 337 336 335 334 334 332 332 331 330 330 329 328 328
327 327 327 327 328 329 329 328 325 323 323 322 322 322 322 321 320 319 320 321 322 324 327 328 329 329 329 329 329 325 318 312 311 312 312 311 312 312 312 313 314 316 315 315 321 329 334 335 334 334 334 336 336 335 333 333 332 332 332 332 332 333 334 334 333 332 333 334 333 334 335 335 334 333 332 331 331 331 331 330 330 330 329 328 328
327 327 326 326 325 326 327 326 322 319 317 315 314 314 314 313 312 311 312 315 316 318 322 324 324 322 322 323 325 324 319 316 316 318 319 318 317 315 315 314 315 318 322 324 327 331 334 336 336 336 335 336 336 334 333 333 332 331 331 331 330 331 331 332 332 331 331 331 331 331 332 331 331 331 330 330 330 330 330 330 329 329 329 329 328
326 327 327 327 325 325 325 325 323 321 319 317 315 312 311 311 311 310 310 310 310 311 314 318 318 315 313 314 316 317 317 319 322 323 323 324 324 324 324 324 325 327 330 331 333 333 334 335 336 337 336 335 333 332 332 332 332 331 330 330 329 329 329 329 330 330 330 330 329 329 329 329 329 329 328 328 327 327 327 327 327 327 327 327 326
326 327 328 328 327 326 325 324 323 322 322 322 320 317 315 314 313 313 313 312 311 310 310 312 312 312 312 314 317 319 320 322 324 324 325 326 327 327 328 328 329 330 332 331 331 331 331 331 331 332 331 330 329 329 330 330 329 329 329 328 327 327 327 327 327 328 328 328 327 327 326 326 326 326 326 325 325 324 324 324 324 324 324 324 325
328 329 329 329 329 329 327 326 325 325 326 326 324 321 320 318 316 315 314 314 314 313 313 314 315 316 318 320 321 322 324 324 325 326 327 327 327 327 327 327 329 330 330 329 329 329 328 327 327 328 328 327 327 327 327 327 327 327 328 327 327 326 325 325 325 325 325 325 325 325 324 324 323 323 323 323 323 323 323 324 324 324 325 325 325
327 328 329 330 330 330 330 329 328 328 328 328 327 325 323 321 320 318 316 317 317 315 314 314 316 318 320 321 322 323 323 324 325 326 327 326 326 326 326 326 327 328 327 327 327 327 326 326 326 326 326 326 325 325 325 325 325 325 325 325 324 324 323 323 323 323 323 322 322 322 322 322 322 322 322 321 321 322 322 323 323 323 324 324 324
327 326 328 329 329 329 329 329 329 330 329 329 329 327 324 324 324 323 322 323 323 321 317 314 314 315 317 318 321 323 323 323 324 325 325 326 326 326 327 326 326 326 326 326 325 325 325 325 325 325 324 324 324 324 324 323 322 322 322 322 321 321 321 321 322 322 321 321 321 320 320 320 320 321 321 320 320 320 321 321 321 321 321 321 320
328 327 327 327 327 327 328 328 328 329 329 328 328 327 326 327 327 327 326 326 326 325 321 317 314 314 314 315 317 320 322 323 323 324 325 326 326 327 328 327 326 325 325 325 324 324 324 324 324 324 323 323 323 323 322 321 320 320 319 319 318 318 319 319 320 320 320 320 320 320 320 319 319 319 319 320 320 320 320 320 319 319 319 318 318
328 328 327 327 327 326 327 328 327 325 325 327 327 326 326 327 326 325 325 326 327 326 324 319 316 315 314 313 314 316 318 321 323 324 325 325 326 327 328 326 325 325 324 324 324 323 323 323 323 322 322 322 321 321 321 320 320 319 319 318 317 317 318 318 317 317 318 319 318 318 318 318 317 317 317 317 318 318 319 319 318 318 318 318 317
325 326 326 325 324 324 326 328 326 323 323 325 326 326 325 325 325 325 325 325 326 326 325 322 320 319 316 314 313 314 316 317 319 322 324 324 324 325 326 325 325 324 324 323 323 322 321 322 321 321 320 320 319 319 319 319 319 318 318 319 318 316 316 316 316 315 316 316 316 316 316 315 315 315 315 315 316 316 316 316 316 316 317 317 317
325 326 324 321 321 323 325 327 328 326 326 326 326 326 324 323 323 324 325 325 325 326 326 325 325 324 322 317 316 317 318 319 319 321 323 324 323 323 324 324 323 323 322 322 322 321 320 320 319 319 318 318 318 317 317 317 317 316 316 317 317 315 314 314 314 313 313 314 313 313 313 312 312 312 312 313 313 312 313 313 313 314 314 314 314
325 326 322 319 321 323 323 323 324 325 325 324 324 324 323 323 322 322 323 325 325 325 326 325 326 326 325 321 319 320 322 323 323 324 324 322 322 322 322 322 321 322 321 320 319 319 319 318 317 317 316 316 316 315 315 315 315 315 314 315 315 314 313 313 312 312 312 312 312 311 311 310 309 309 310 310 310 310 311 312 312 312 312 312 312
322 323 320 319 320 320 318 319 320 320 322 323 323 324 325 324 323 323 323 323 324 324 324 324 324 326 326 324 323 324 323 324 325 324 323 322 321 321 321 320 320 320 320 318 318 318 317 316 316 315 315 314 314 314 313 313 314 313 313 313 313 313 312 311 311 310 310 310 310 310 309 309 309 309 309 309 309 309 310 310 311 310 310 310 310
319 319 318 319 319 317 317 319 320 321 322 322 322 323 323 323 323 324 324 324 324 324 324 324 324 325 324 324 324 323 321 321 322 323 322 322 321 321 320 320 319 319 318 317 317 316 315 315 314 314 313 313 312 312 312 312 311 311 310 310 311 311 310 309 309 308 308 307 307 307 307 307 308 307 308 308 308 308 309 309 309 309 309 309 309
319 318 318 318 318 318 318 320 320 320 321 321 321 322 323 323 323 323 323 323 324 323 323 323 324 324 323 322 322 322 320 319 320 320 321 321 321 320 320 319 318 318 317 316 316 315 314 314 313 312 312 312 311 310 310 310 309 309 309 308 308 308 308 307 306 306 305 305 305 305 306 306 306 306 306 307 307 307 307 308 308 308 308 308 308
319 319 319 318 318 318 318 319 320 320 320 320 320 320 320 319 320 320 319 320 321 322 321 322 323 324 323 322 321 321 321 319 319 319 320 320 320 319 319 318 318 317 316 315 314 314 314 313 312 311 312 312 310 309 309 308 307 307 307 307 306 305 304 304 304 303 304 304 304 304 304 304 305 305 305 305 305 305 306 307 307 306 306 306 306
319 319 318 317 317 318 318 319 320 320 319 319 318 318 318 318 318 318 318 318 319 320 320 320 321 322 324 323 321 321 321 320 319 319 320 320 319 318 318 317 316 316 315 314 314 313 313 312 311 311 311 310 309 309 308 307 306 306 305 305 303 302 302 302 302 302 302 302 302 302 302 303 303 304 304 304 304 305 305 305 305 305 305 305 305
318 317 316 316 316 317 318 318 318 318 318 318 318 318 318 318 318 318 318 318 319 319 319 319 319 320 321 322 322 321 322 321 320 319 319 319 319 318 317 317 316 315 315 314 313 313 312 312 311 310 310 309 308 308 307 306 305 304 304 303 302 300 300 300 301 301 301 301 301 302 302 302 303 303 303 303 304 304 305 304 304 304 304 304 304
316 316 316 316 316 316 316 316 316 317 317 317 317 317 317 316 316 317 317 317 318 318 318 318 318 318 318 320 321 321 321 321 320 319 319 319 318 317 316 316 315 315 314 313 313 312 311 310 310 309 309 308 307 307 306 305 304 303 302 302 301 300 299 299 300 300 300 300 301 301 301 301 302 302 303 303 303 303 303 303 303 303 303 303 303
315 316 316 315 316 316 315 316 316 315 315 316 316 316 316 315 315 315 316 316 317 317 317 317 318 318 318 320 321 321 321 320 319 319 318 318 317 317 316 315 315 314 313 312 311 311 310 310 309 308 308 307 307 306 305 304 303 302 301 301 300 299 298 298 299 299 299 299 300 300 300 301 301 301 302 302 302 302 302 302 302 302 302 302 302
315 315 315 315 315 315 315 315 315 314 314 314 314 314 314 315 315 315 316 316 316 317 317 317 318 319 319 320 321 321 320 319 318 317 317 316 316 315 314 314 313 313 312 311 310 310 309 309 308 307 307 307 306 306 304 303 301 301 300 300 299 298 297 296 297 297 298 299 300 300 300 301 301 301 301 301 301 302 302 302 301 301 301 301 302
314 314 314 314 314 314 314 314 314 314 314 314 314 314 315 315 316 316 316 316 316 317 317 317 318 318 319 319 319 318 318 318 317 316 315 315 315 314 313 312 311 311 311 310 310 309 308 308 307 306 306 306 305 304 303 302 300 300 299 299 298 298 296 295 295 296 298 299 300 300 300 300 300 300 300 301 301 301 301 301 301 301 301 302 302
313 313 313 313 312 313 313 313 313 313 313 313 313 314 314 314 315 315 315 316 316 316 316 316 317 316 316 315 316 316 316 316 316 315 314 314 313 313 312 311 310 310 310 309 309 308 308 307 307 306 305 304 304 303 302 301 300 299 299 298 298 296 295 294 295 296 298 299 299 300 300 300 300 300 300 300 300 300 300 301 301 301 301 301 301
312 312 313 312 312 312 312 312 312 312 312 312 312 313 313 314 314 314 313 314 314 314 314 315 315 315 314 314 314 314 314 314 314 313 313 313 312 312 311 310 310 309 309 308 308 307 307 306 306 305 304 304 303 302 301 301 300 299 299 298 297 295 295 295 296 297 298 299 299 299 299 299 300 300 300 299 299 299 300 300 300 300 300 300 300
Wind_Speed
22 22 21 20 20 19 20 20 19 18 17 17 16 16 15 16 15 15 15 15 14 14 15 15 14 13 13 14 14 14 15 14 13 12 13 13 13 12 12 11 10 10 10 10 9 9 9 9 8 8 8 8 9 7 7 8 5 3 3 2 1 1 2 2 3 2 1 1 2 2 1 1 3 4 4 5 6 5 6 9 8 7 6 6 6
24 23 22 21 21 20 20 20 20 19 18 18 17 16 16 16 15 15 15 15 15 14 14 14 15 15 15 14 14 14 14 15 14 13 13 13 13 12 12 12 11 11 12 11 11 10 10 10 10 9 9 10 10 8 7 7 4 3 4 2 1 1 1 0 2 3 1 1 1 1 2 3 2 3 4 5 5 5 8 8 9 9 9 10 8
21 22 22 21 20 20 19 19 19 19 18 18 17 17 16 16 15 15 15 14 14 14 14 15 16 16 15 14 13 14 13 13 13 13 13 14 13 11 12 13 13 12 13 13 12 12 12 12 11 10 9 9 8 7 8 8 5 5 5 2 2 1 1 1 1 3 2 1 0 0 3 4 4 4 4 4 5 6 7 7 10 9 12 13 10
16 19 22 20 19 19 18 18 18 18 18 18 17 17 16 15 15 15 15 14 14 15 15 16 16 15 16 15 14 14 14 13 12 13 13 13 13 13 13 13 12 11 12 13 12 12 11 11 10 8 9 9 8 6 6 7 5 5 4 3 3 1 2 1 1 2 1 1 1 2 4 5 5 5 6 5 6 7 7 8 8 5 9 12 9
17 17 19 17 16 18 17 17 17 15 15 15 15 16 15 15 15 15 14 14 14 14 14 15 16 15 15 15 14 14 14 13 13 13 13 13 13 14 14 14 13 13 13 13 13 12 11 11 9 8 9 10 9 8 6 5 4 2 2 3 3 2 2 3 2 2 2 2 2 4 5 6 6 6 7 8 7 7 8 9 7 3 7 11 9
19 17 17 16 16 17 16 16 15 12 12 13 15 15 13 13 13 13 14 15 15 14 13 11 13 15 15 16 16 15 14 14 14 13 13 13 14 14 13 13 12 12 13 13 13 13 13 12 10 9 8 7 7 8 6 4 3 2 2 2 2 2 0 2 2 2 2 3 4 6 6 6 8 9 9 9 10 10 9 8 7 6 6 7 7
19 16 15 16 17 16 15 16 16 13 14 17 18 17 15 12 10 8 9 12 12 13 13 10 10 13 15 15 16 15 14 14 14 13 13 13 13 14 13 11 9 10 12 13 12 12 12 11 10 10 9 7 7 6 4 4 4 3 3 3 1 1 1 2 3 2 2 4 6 7 8 8 9 10 9 8 9 11 10 10 9 7 8 6 6
19 17 16 16 17 17 15 15 16 15 16 18 19 19 17 14 13 11 8 8 10 13 15 14 11 13 14 15 16 16 14 13 12 13 14 13 11 13 14 12 10 10 11 11 12 13 12 11 10 10 9 8 8 7 5 5 6 4 3 3 3 1 2 3 3 4 4 5 6 6 8 8 9 9 9 8 11 12 10 11 12 6 6 7 7
11 13 14 14 15 17 16 15 14 14 15 18 19 20 18 15 15 15 12 10 12 15 16 14 12 14 15 14 16 13 8 9 11 12 14 14 13 13 13 11 10 11 11 11 13 13 12 11 10 11 11 10 9 8 7 7 7 5 3 2 3 3 3 4 4 5 5 5 6 6 7 8 8 9 9 8 11 12 11 12 13 10 7 8 9
3 6 8 9 10 11 13 14 12 11 12 16 17 18 19 17 16 17 15 12 12 13 14 13 11 11 9 10 12 11 6 6 8 9 11 13 14 14 12 11 11 11 12 13 15 14 12 12 11 11 13 12 10 10 10 9 8 8 6 5 5 5 5 6 6 6 6 6 7 7 6 7 8 9 10 10 11 12 12 11 11 10 7 6 7
6 8 9 9 7 6 7 8 8 6 8 11 13 14 17 17 17 18 16 14 14 13 13 13 10 6 6 7 6 6 7 9 9 9 9 9 11 12 11 10 10 10 9 11 13 13 12 14 13 13 13 11 9 10 10 9 10 11 11 11 9 8 8 8 8 7 7 8 9 9 8 9 9 9 10 11 10 9 8 7 7 7 4 2 6
8 8 8 8 8 6 4 5 7 7 7 9 10 12 15 16 15 15 15 15 15 14 12 12 10 6 5 5 2 2 2 7 9 10 10 10 11 11 10 10 11 10 9 9 9 9 12 15 14 15 15 11 8 9 10 10 11 12 12 12 12 11 12 11 11 9 8 9 11 12 11 11 11 11 10 11 10 8 6 7 9 10 7 6 7
9 9 9 9 10 8 5 7 11 12 11 10 10 12 15 16 15 14 13 14 15 14 12 12 12 9 6 5 3 3 3 5 7 8 10 12 12 12 13 13 10 8 8 9 10 11 15 16 14 16 18 13 9 10 11 10 10 10 10 11 12 12 12 12 13 12 11 12 13 13 13 12 12 13 12 11 10 8 7 8 9 10 11 11 11
8 10 9 9 8 6 6 10 14 15 14 13 12 12 14 16 16 15 14 15 15 14 13 12 11 10 8 6 4 4 5 7 8 7 8 10 12 12 12 11 9 8 9 11 12 10 11 13 12 12 15 14 12 12 12 10 9 9 9 10 11 11 11 11 12 12 12 13 15 16 16 14 15 16 15 15 13 11 9 9 8 11 13 13 13
6 6 6 7 7 5 7 11 12 14 14 13 12 12 12 12 12 13 15 15 14 14 14 12 9 7 7 6 5 5 6 8 8 8 7 8 9 10 9 7 7 11 13 12 12 9 8 11 10 8 11 13 14 15 14 12 10 9 9 10 11 11 11 11 11 11 11 12 14 16 18 17 17 18 18 17 16 14 13 12 11 10 11 11 11
2 3 4 6 7 7 7 9 10 11 12 12 12 13 12 11 12 13 14 12 11 12 13 11 7 5 4 3 4 6 8 8 8 8 8 7 6 5 5 4 6 9 11 11 10 9 10 11 11 9 10 12 16 17 16 13 12 11 10 12 13 13 14 14 14 14 13 13 15 16 17 18 19 19 20 19 18 16 14 13 11 8 8 9 9
9 7 5 4 3 5 5 5 7 9 10 11 13 13 14 15 16 16 13 11 10 10 10 8 6 6 5 6 7 8 7 6 6 7 6 6 4 1 1 3 5 6 6 5 6 8 10 10 9 8 8 10 14 16 14 13 13 12 11 12 14 16 17 17 16 17 16 16 17 17 18 19 19 20 22 21 19 15 12 11 11 10 9 8 7
15 13 12 9 6 3 3 4 4 6 7 8 11 12 13 15 17 17 14 11 10 9 7 7 8 6 7 9 9 8 4 2 3 4 4 4 3 2 1 1 3 3 2 2 2 4 5 6 7 8 7 9 12 12 10 9 9 10 10 12 14 16 17 17 17 18 17 16 15 17 19 20 20 22 24 24 20 15 12 14 15 12 10 10 10
17 17 15 13 12 9 6 5 4 4 4 5 7 8 9 13 15 17 19 15 12 11 9 9 11 11 14 14 11 7 4 3 0 1 1 2 1 2 3 2 0 2 3 3 2 2 2 3 7 9 8 9 10 10 8 7 7 8 10 12 14 14 16 17 17 18 19 17 15 15 16 18 18 20 23 24 23 19 15 16 16 13 9 9 10
18 18 18 16 15 13 11 8 8 9 8 7 7 7 6 10 11 10 18 18 14 12 12 13 14 14 15 15 11 7 5 3 1 1 1 1 0 2 3 3 2 1 2 2 2 3 2 3 7 8 6 7 8 7 8 8 9 10 10 11 13 13 14 15 15 16 17 15 15 16 16 15 15 16 17 17 16 15 15 16 18 17 13 11 11
17 19 21 19 18 18 17 15 15 14 13 11 11 11 7 5 5 1 9 16 17 16 16 16 15 14 13 11 10 8 6 3 3 2 1 1 1 2 3 2 3 3 3 3 2 2 2 3 6 6 6 7 8 9 10 11 12 12 11 11 13 14 15 16 16 17 17 16 17 19 18 16 16 16 16 15 11 10 13 15 17 18 17 15 13
17 18 19 20 20 22 22 21 20 20 18 17 16 16 14 13 12 12 14 17 20 20 18 17 15 14 13 12 11 10 8 6 5 3 2 2 1 1 2 2 2 4 5 5 2 2 1 1 4 6 7 9 10 11 10 9 9 9 10 12 14 15 16 17 17 18 18 18 19 20 20 19 17 15 16 16 11 7 7 10 13 14 14 13 12
18 18 18 18 20 23 24 23 23 23 22 21 21 19 18 18 18 18 17 17 18 18 17 17 16 16 16 15 13 11 9 7 5 4 3 2 2 2 2 3 3 5 7 6 4 3 4 4 5 8 9 9 9 8 8 8 8 9 10 11 11 11 12 13 13 15 17 18 18 18 19 19 17 15 15 15 12 8 4 4 6 8 6 5 6
18 18 18 18 18 20 21 22 22 22 22 22 21 20 18 18 19 18 16 16 17 18 17 16 17 17 17 15 13 11 10 9 7 6 5 3 3 4 5 6 6 7 8 7 6 5 6 6 6 6 7 7 7 8 9 11 12 13 12 10 9 9 10 10 11 12 13 14 14 13 13 14 13 13 12 11 10 8 5 4 6 6 4 5 5
17 16 16 17 16 16 17 19 19 19 20 20 20 18 17 16 16 16 16 16 17 17 15 13 14 16 15 14 14 13 11 10 10 9 8 6 5 5 6 7 8 8 9 9 9 9 7 5 4 6 8 10 11 11 12 13 14 13 13 12 11 11 11 10 11 11 12 13 14 13 12 10 7 5 3 3 3 3 3 4 4 6 8 9 10
17 17 17 16 16 16 16 16 16 16 17 17 17 16 15 15 15 14 14 13 13 13 12 11 11 12 12 11 12 12 11 11 10 10 9 8 7 7 6 8 9 9 9 9 9 9 7 5 6 8 10 12 13 12 12 13 13 12 12 12 11 11 11 11 11 11 11 12 13 13 12 9 5 3 3 3 3 3 4 6 8 10 12 13 14
16 15 16 16 16 17 17 16 16 17 16 15 15 15 15 15 15 15 14 12 10 9 9 8 8 9 9 8 8 10 11 10 10 9 8 7 8 8 8 9 9 8 8 9 8 5 2 1 3 7 10 12 12 12 12 12 13 12 12 13 13 11 10 10 11 11 10 9 11 12 11 9 7 7 7 7 6 5 4 6 8 10 12 13 13
13 14 14 14 14 15 16 17 18 19 20 19 18 17 16 16 16 17 16 14 13 12 10 9 8 8 8 7 6 7 9 9 8 7 7 6 7 8 9 10 10 8 7 6 4 2 2 3 3 3 7 8 9 10 11 12 13 13 12 13 14 14 13 12 13 14 13 11 11 12 12 10 10 10 10 10 9 8 6 7 8 9 9 10 10
11 12 13 13 13 14 14 14 15 17 19 20 20 20 18 17 17 17 15 14 13 12 11 11 10 9 7 6 5 6 7 7 6 6 6 5 5 5 5 6 7 5 3 1 3 3 3 5 7 5 3 4 6 9 11 11 11 12 13 12 13 15 16 16 15 16 16 16 15 15 14 14 13 12 12 12 11 9 9 9 9 9 9 10 11
14 14 14 14 13 13 13 12 12 13 13 14 17 19 19 18 17 17 17 15 14 12 10 9 9 8 7 6 6 6 5 5 6 6 6 6 6 6 6 6 5 4 3 5 6 6 5 5 6 6 3 4 7 10 12 12 11 12 14 14 14 14 15 15 14 13 13 14 14 13 12 12 12 11 11 12 11 10 9 8 7 7 8 9 9
16 15 14 14 13 13 12 12 12 11 11 10 11 14 17 18 18 18 18 17 16 15 13 10 9 8 8 9 8 7 6 6 7 8 8 9 10 10 11 10 8 6 6 9 10 10 10 11 9 9 10 13 15 14 12 12 13 12 12 14 15 15 15 16 15 13 13 13 13 13 12 11 10 9 9 9 9 8 7 6 6 6 7 7 6
15 13 12 12 12 11 11 10 9 9 8 7 7 9 11 13 14 15 16 17 17 16 15 13 12 11 11 10 9 8 8 9 9 10 11 12 13 14 15 16 14 12 13 15 17 17 18 20 20 19 19 19 19 18 15 13 13 12 11 12 14 15 16 15 14 13 13 13 12 13 13 12 11 11 10 9 9 9 8 8 8 8 7 6 5
13 11 10 9 9 10 9 9 8 7 6 6 6 7 8 7 8 9 11 13 15 16 15 14 13 11 10 10 9 10 10 11 11 12 12 12 13 14 16 17 17 17 17 18 20 20 21 21 20 19 18 17 16 16 16 15 14 14 13 13 13 13 13 13 13 12 12 12 11 11 11 10 10 10 10 10 10 9 9 9 9 9 9 9 8
10 10 9 8 9 9 9 10 9 8 7 6 4 5 7 4 3 4 6 8 10 11 13 13 12 11 10 9 8 8 10 11 11 11 11 12 12 13 13 14 15 16 17 17 17 17 17 16 16 14 13 13 12 12 13 14 14 13 14 14 14 13 13 13 13 12 11 9 10 10 9 9 9 8 7 7 8 8 7 7 7 8 8 9 10
7 10 9 9 9 9 10 10 10 9 7 7 7 5 4 1 2 2 4 5 6 5 6 9 10 10 10 9 7 6 7 8 10 10 10 10 9 8 9 11 12 13 14 14 13 13 13 13 12 11 11 12 12 10 10 10 10 11 12 13 13 13 13 13 13 14 12 11 10 10 10 10 10 10 8 7 7 7 6 5 6 7 7 7 9
4 9 11 11 9 8 8 6 6 6 4 5 7 6 2 2 2 2 3 3 4 5 5 4 6 7 8 8 8 7 6 6 7 8 8 8 8 7 8 9 9 9 10 11 11 12 12 12 11 11 11 11 10 10 9 8 9 12 12 11 11 12 13 13 13 15 15 14 13 13 14 14 14 14 13 13 12 11 9 8 8 9 6 5 7
9 12 13 11 10 9 7 4 3 3 3 3 5 4 3 4 5 4 2 3 2 5 6 3 2 3 5 6 8 8 7 6 7 8 8 9 10 10 10 9 9 9 10 9 8 9 10 11 10 11 12 11 10 12 13 10 9 10 10 9 10 12 12 13 14 15 15 15 14 14 14 15 14 14 14 15 15 14 13 12 12 13 11 9 9
8 10 10 9 7 7 8 7 3 2 2 3 4 4 2 3 5 5 4 4 2 2 5 5 5 6 4 4 7 7 6 5 6 5 4 6 9 10 10 10 10 11 10 10 10 11 13 13 12 12 13 13 12 12 13 12 12 12 10 9 10 12 12 11 12 14 14 15 15 14 14 15 15 14 14 15 15 15 15 14 13 13 13 12 12
5 5 8 9 6 5 8 9 6 5 5 6 6 5 4 4 4 4 3 4 3 1 3 4 5 8 8 5 5 3 2 2 1 3 1 4 7 8 8 9 10 10 10 10 12 13 13 13 12 12 12 12 11 11 10 9 10 11 11 8 7 8 9 9 9 9 11 12 12 12 12 13 13 13 13 13 14 13 13 12 11 11 11 11 11
5 5 6 7 6 6 7 7 7 7 7 6 7 8 8 9 9 7 5 5 5 4 6 8 3 6 9 7 5 4 2 2 5 5 2 5 6 6 7 8 8 7 7 8 10 11 11 11 11 11 11 11 10 10 11 10 10 10 12 11 7 6 8 11 11 10 11 11 12 12 12 12 12 11 11 11 11 11 10 10 10 11 11 10 10
7 7 7 6 6 7 6 6 6 7 7 8 8 8 8 10 11 10 10 10 9 9 10 7 3 7 8 6 6 5 3 6 7 3 3 6 6 7 8 8 9 10 10 10 11 12 11 10 10 10 10 10 9 10 11 12 12 13 16 17 14 11 11 13 14 13 13 13 14 14 14 13 13 12 12 11 12 12 11 10 9 10 10 10 10
6 7 6 5 6 6 6 6 8 8 7 7 8 9 10 10 9 9 10 9 9 10 10 7 4 4 1 3 5 5 5 7 8 5 1 5 6 5 6 7 9 12 12 12 12 10 8 8 8 8 8 6 6 8 8 8 9 12 14 17 17 15 14 15 15 15 14 14 13 13 13 13 13 12 12 12 12 12 13 12 11 11 11 11 12
6 6 5 5 5 5 5 6 7 7 7 8 10 11 11 10 9 9 9 9 9 9 9 6 2 3 4 4 4 6 6 6 8 8 2 5 5 3 5 7 9 10 11 11 10 7 6 7 7 8 10 7 6 9 10 9 9 11 12 13 14 15 15 16 17 16 15 14 13 12 12 13 13 12 11 12 12 12 12 13 14 15 15 15 14
6 5 5 5 5 5 5 6 6 7 8 10 10 9 8 8 8 9 9 9 10 9 9 9 7 1 6 5 3 5 5 5 8 8 2 6 6 4 7 9 8 8 8 8 8 7 7 8 6 8 11 10 9 11 12 11 10 10 11 11 13 15 15 16 15 14 13 12 12 12 12 12 12 11 11 11 11 10 9 10 11 12 12 12 12
5 5 5 5 5 5 6 6 6 6 6 7 7 7 8 8 9 9 9 9 10 10 10 12 12 8 3 2 3 4 5 5 7 7 3 7 8 7 9 9 7 7 8 7 6 5 6 8 8 9 10 10 8 10 12 12 10 9 10 10 12 13 14 14 13 12 11 11 11 11 10 10 11 11 10 10 11 11 11 10 10 9 9 10 10
5 5 5 5 5 6 5 5 6 6 6 6 6 7 7 7 8 9 10 9 10 11 10 10 11 11 10 7 5 4 5 5 6 7 3 6 10 9 9 8 6 7 8 7 6 5 5 7 8 9 10 9 8 9 11 10 7 7 7 7 8 11 13 11 10 9 9 9 9 10 10 10 10 10 11 10 10 10 11 12 12 11 11 11 11
4 5 5 5 5 6 5 6 7 7 6 7 8 8 8 8 8 8 8 8 9 10 11 11 11 10 10 8 7 6 4 4 4 5 4 2 8 8 8 7 6 7 8 9 10 9 9 8 8 8 7 7 7 7 7 6 4 5 6 6 9 14 13 8 6 7 6 5 7 9 8 8 9 9 10 11 10 9 10 10 10 11 12 12 12
5 5 5 5 6 6 7 7 8 7 7 7 8 8 10 11 13 12 10 10 11 11 11 12 12 10 8 6 7 7 5 3 3 2 4 6 7 7 8 8 8 8 8 9 10 10 10 9 9 9 7 6 6 5 4 3 4 6 7 8 12 16 13 6 3 4 3 4 6 8 7 7 8 8 9 10 10 10 11 10 9 10 10 10 10
5 5 5 7 7 7 7 7 7 7 8 8 8 9 10 12 14 15 13 12 12 12 12 12 12 11 10 9 8 8 8 8 6 6 7 9 10 10 10 10 10 10 10 10 9 9 8 7 7 6 6 5 5 4 3 3 4 7 9 11 13 14 11 6 3 3 2 4 7 8 7 7 8 8 8 9 9 10 10 10 9 9 9 9 10
4 4 4 6 6 6 6 7 7 8 8 8 8 9 10 10 11 12 12 12 12 13 12 12 14 15 16 15 14 12 11 9 8 9 9 10 10 11 10 9 9 10 10 10 9 8 7 6 5 4 4 4 3 2 1 3 5 8 10 12 12 11 8 4 2 3 3 4 7 8 7 7 7 7 8 8 9 9 9 9 9 10 10 10 10
4 5 5 5 5 5 7 7 7 7 8 8 8 9 10 10 10 11 12 12 12 11 12 12 13 14 15 16 16 16 15 12 11 10 9 9 8 8 9 9 9 9 8 8 8 6 5 5 4 4 4 3 2 2 1 3 5 8 11 11 9 7 5 3 3 4 4 4 7 8 7 6 7 7 7 8 8 8 8 8 9 10 10 10 10
Wind_Direction
191 192 195 198 199 198 199 201 204 207 209 211 213 213 214 216 217 219 221 221 222 221 219 222 225 221 219 221 222 225 225 222 225 230 227 229 234 240 252 255 243 242 249 255 266 273 276 277 274 272 273 272 275 275 276 275 258 264 305 310 8 354 248 192 165 183 234 255 297 289 239 203 214 186 173 198 200 196 207 216 240 250 220 224 241
191 190 194 198 200 200 200 200 203 207 211 212 215 217 216 218 220 221 224 223 222 223 220 219 225 227 227 228 228 230 232 228 225 231 233 233 234 237 247 252 246 243 248 256 261 265 270 273 271 272 273 271 270 272 282 288 295 320 306 298 25 350 295 229 173 176 219 280 328 332 273 261 239 202 207 216 209 210 216 231 257 246 211 220 233
190 187 193 198 200 202 202 202 203 206 212 215 217 219 220 220 221 224 227 227 223 223 223 222 224 226 228 231 234 236 238 236 230 230 235 238 237 236 242 248 246 241 243 251 256 258 259 264 268 270 274 281 285 289 300 304 316 342 334 352 61 30 317 350 135 152 156 246 193 277 268 264 257 243 244 242 235 236 230 243 269 250 204 207 219
197 189 193 197 201 203 203 205 207 207 212 218 220 223 225 223 222 225 230 232 231 226 223 224 226 227 228 230 234 238 239 239 237 234 235 240 243 243 245 252 256 253 249 251 255 256 254 259 266 272 277 286 291 293 311 321 326 342 348 7 42 88 184 192 162 149 156 216 230 277 292 286 269 256 263 263 242 241 240 244 277 269 183 186 205
190 182 190 199 204 207 206 208 211 210 212 219 225 227 227 228 228 227 230 234 239 237 231 228 230 229 226 227 229 234 237 237 239 240 238 241 247 248 248 250 254 257 258 259 260 260 264 268 270 276 283 284 280 280 300 328 338 338 344 360 24 67 182 224 245 225 213 222 250 283 296 299 288 271 274 280 270 265 254 238 250 260 172 174 196
187 180 189 199 205 211 210 206 211 215 214 220 230 230 227 233 235 229 230 238 243 244 241 239 241 237 232 230 230 232 236 238 238 241 242 243 247 252 253 252 253 257 261 264 265 264 268 272 269 269 272 274 273 273 283 304 311 305 324 348 55 98 191 263 266 250 241 250 273 285 290 292 291 288 284 278 276 285 286 263 242 227 199 184 197
189 190 198 200 203 212 209 204 209 215 215 219 226 229 230 239 247 237 224 229 232 234 237 245 262 261 249 244 242 234 233 239 239 240 244 247 252 256 255 253 259 263 261 266 271 270 272 276 274 262 252 251 260 260 252 255 260 268 297 309 293 160 216 260 278 285 249 247 263 276 284 287 290 295 291 274 269 281 291 293 278 231 206 207 209
182 190 202 201 201 208 205 202 207 212 217 223 227 230 233 239 252 256 239 229 233 233 232 233 248 256 248 252 259 248 237 244 249 247 245 242 246 255 255 252 258 263 260 264 267 265 266 269 269 267 259 249 246 243 235 242 252 253 263 297 307 272 182 215 264 272 247 236 249 269 285 288 290 297 295 273 264 269 273 284 288 262 211 218 221
184 192 200 198 199 205 205 203 207 212 221 231 233 232 233 235 247 256 254 251 249 240 234 234 245 250 242 250 272 278 259 245 248 248 245 238 237 248 254 253 259 266 265 266 268 268 265 258 259 271 270 253 243 244 239 235 244 250 251 283 301 280 227 218 237 257 262 252 251 263 275 278 284 292 289 266 258 267 271 273 279 277 257 240 233
231 214 205 207 206 207 209 207 209 213 222 235 238 234 233 233 240 249 254 256 249 241 244 250 252 250 236 237 267 287 281 247 244 247 248 247 244 246 251 258 266 272 269 266 271 275 271 264 268 273 264 255 258 261 253 248 257 259 253 253 264 270 262 243 231 238 251 255 258 259 256 260 270 274 273 267 262 267 270 265 268 277 276 265 256
243 232 216 219 225 223 216 216 229 236 234 241 243 238 236 236 242 251 255 255 249 247 257 258 249 242 230 227 249 277 266 256 260 262 257 251 248 247 250 258 266 273 275 269 271 280 281 279 283 279 261 251 261 271 266 269 277 274 269 264 259 254 254 252 251 250 251 257 265 262 252 255 265 267 268 271 267 261 265 267 268 276 283 290 274
251 247 232 228 237 249 244 237 251 258 255 253 250 248 248 247 251 258 260 258 255 255 257 248 237 227 217 215 187 93 233 248 259 268 265 249 241 242 242 248 258 266 270 270 276 295 303 297 292 288 278 257 251 274 281 282 286 283 273 265 258 255 253 252 257 260 261 264 266 264 260 260 265 267 267 271 272 267 275 289 281 272 270 266 269
256 254 252 248 250 259 268 256 245 238 240 249 250 251 254 256 258 261 264 264 259 257 253 240 230 227 218 211 205 193 215 233 243 263 272 259 244 237 237 246 264 278 280 289 300 304 304 302 300 299 297 286 272 281 286 282 285 282 269 262 261 262 261 257 256 257 258 260 261 261 263 264 265 264 259 265 280 284 280 285 274 253 249 253 260
236 241 245 250 256 253 237 238 238 234 236 243 243 243 247 253 255 256 261 264 260 254 249 239 233 238 240 232 213 202 215 230 234 241 258 258 249 241 242 251 269 275 273 292 306 299 285 287 296 302 299 297 298 298 294 290 284 274 266 267 267 268 270 270 266 264 262 262 262 263 263 263 264 266 264 262 269 273 270 271 263 246 246 254 260
236 251 253 254 263 255 225 225 235 242 245 246 245 244 245 250 253 253 254 256 253 248 242 235 232 241 250 245 222 206 218 231 235 233 237 251 254 251 250 253 262 266 267 281 302 307 288 279 282 282 277 281 288 290 290 287 279 271 267 265 266 267 270 270 267 266 269 271 271 272 270 265 262 264 266 263 260 262 264 263 258 250 248 249 253
323 294 282 265 259 254 243 238 245 255 257 256 254 253 250 248 249 250 251 246 239 234 231 228 224 215 213 199 188 206 225 236 240 239 240 252 264 261 248 237 251 267 274 279 287 296 295 284 273 267 269 275 280 283 283 280 276 275 270 265 268 271 270 268 263 261 264 266 268 271 272 270 267 263 262 263 260 257 255 252 249 251 247 243 247
37 43 30 348 281 248 258 267 267 270 269 262 260 260 253 247 242 237 233 227 220 220 219 208 191 184 172 157 173 204 227 241 246 244 244 252 263 265 252 263 268 270 275 283 284 282 286 283 276 277 279 276 278 282 284 282 278 277 273 270 276 277 273 273 272 270 270 268 266 265 263 266 269 267 267 269 265 257 246 242 249 252 242 239 249
41 49 49 38 36 37 10 352 308 286 281 272 272 272 265 262 254 237 222 212 203 198 193 176 165 160 150 151 172 197 201 207 240 235 229 239 235 187 163 283 303 288 272 328 345 294 275 266 263 267 264 262 271 280 286 286 283 283 285 286 284 281 282 286 288 286 284 277 268 261 257 259 263 265 269 269 264 259 251 245 250 249 234 234 241
48 50 51 50 52 55 46 24 359 339 335 324 314 307 302 303 286 246 219 206 193 181 170 159 149 137 132 139 154 171 160 145 189 220 217 243 241 187 183 182 140 331 325 357 9 314 298 266 257 258 259 261 269 279 284 285 285 288 295 298 294 291 294 300 304 303 297 289 281 272 264 265 269 272 277 275 269 266 259 248 247 249 248 257 257
59 56 56 57 56 57 56 51 46 42 34 24 14 3 344 331 312 246 206 193 180 163 152 150 146 136 133 138 143 142 137 133 97 22 334 312 145 170 185 185 160 84 13 4 289 272 319 297 267 265 274 278 278 284 293 298 298 296 297 299 296 294 298 301 305 308 306 301 293 283 276 276 279 281 283 279 270 262 253 243 239 236 237 248 252
64 63 63 63 60 59 58 56 54 52 50 50 47 42 44 37 21 94 162 158 149 137 132 135 134 124 122 127 130 128 123 110 91 66 40 87 165 183 178 161 136 112 64 23 325 307 346 296 278 282 298 302 300 301 301 301 302 298 290 286 285 285 290 296 298 301 304 301 293 286 285 284 278 271 269 266 259 250 244 239 234 229 226 227 230
67 71 69 65 62 63 62 58 57 57 56 57 57 54 57 68 75 84 101 116 123 122 119 119 116 107 102 100 98 99 98 93 90 77 64 75 113 188 182 162 129 105 80 66 64 52 42 310 301 313 322 321 316 314 314 313 313 308 299 293 291 290 291 294 296 298 300 300 294 289 289 287 279 271 269 264 252 239 235 227 219 215 214 214 217
68 71 71 67 64 63 63 62 62 62 61 60 61 61 62 66 72 77 80 86 94 98 99 103 104 96 88 83 79 77 72 67 70 66 62 76 88 99 113 103 102 100 86 77 70 28 360 342 323 318 324 334 335 337 351 0 358 348 335 324 319 316 312 310 307 301 299 302 300 289 285 286 284 283 280 267 254 247 237 215 212 215 210 204 215
66 67 68 69 68 64 62 61 61 62 61 62 62 63 64 66 68 71 73 77 82 83 85 91 95 90 84 78 71 65 58 52 51 48 44 48 60 70 84 90 97 100 87 73 64 44 15 359 354 348 355 13 24 27 31 30 26 21 13 5 2 357 349 342 336 327 320 323 324 312 300 298 292 286 283 272 264 263 252 248 251 237 202 154 147
63 64 63 64 65 64 62 61 60 60 59 60 60 60 61 64 65 67 70 73 78 81 81 83 84 83 81 76 70 66 62 58 54 52 50 49 51 61 77 83 85 84 74 66 67 65 51 41 57 66 61 59 56 52 47 40 36 36 32 26 19 9 357 348 348 354 355 356 358 354 345 340 322 284 263 238 234 222 190 196 200 179 159 143 128
68 66 63 62 61 60 58 57 56 56 56 55 54 54 54 56 58 60 65 71 78 81 80 77 75 75 74 70 66 63 62 62 62 61 63 64 66 74 87 90 87 81 76 77 80 77 75 90 107 99 87 75 67 60 51 41 37 39 36 29 21 10 5 3 3 6 9 9 12 13 9 13 33 81 101 114 136 136 140 146 144 143 144 139 128
75 73 68 64 62 61 60 58 57 59 60 58 55 52 51 53 55 54 52 53 59 69 73 74 75 75 71 65 57 51 51 57 62 64 65 68 71 77 87 93 91 88 91 99 102 90 67 89 117 110 99 86 76 69 58 46 42 43 42 38 32 22 16 17 19 20 20 18 20 25 26 30 46 67 77 84 96 109 135 147 138 134 137 134 122
92 88 83 78 73 69 66 65 65 65 65 65 63 59 56 56 57 54 48 43 42 44 51 59 62 61 61 56 43 35 38 42 48 54 58 63 71 78 83 85 83 82 90 109 134 167 218 260 252 138 109 94 82 73 63 53 49 46 46 46 44 41 40 40 38 38 40 38 36 39 45 54 64 76 85 91 95 103 123 141 136 132 138 135 121
95 88 83 81 80 78 73 70 72 71 67 65 63 61 60 59 58 55 50 45 43 42 49 61 62 54 54 52 39 36 42 37 33 42 49 48 55 71 79 82 85 86 78 5 296 272 256 259 254 228 161 115 95 77 61 54 51 47 46 46 45 46 50 49 46 46 49 49 48 49 56 65 70 76 85 90 93 101 112 120 121 123 126 123 113
57 54 54 55 61 69 70 68 71 73 70 68 66 64 64 63 62 61 57 52 48 45 49 58 53 44 52 63 54 47 52 45 40 50 58 56 54 52 42 37 39 37 19 3 350 340 326 293 260 228 188 103 81 72 59 51 48 47 46 43 39 40 44 44 43 44 47 49 49 51 58 63 62 66 76 81 83 88 94 100 104 102 102 104 100
59 52 49 47 49 59 67 68 70 71 73 76 76 73 69 64 63 63 61 58 55 53 53 55 53 54 66 73 68 63 64 64 64 68 71 70 67 59 48 37 29 26 40 46 44 45 48 49 53 64 67 59 53 53 55 54 51 49 48 44 39 37 38 40 40 41 43 45 46 50 55 56 55 60 67 69 65 62 62 66 69 64 65 71 71
65 61 57 53 51 56 64 71 76 78 79 82 86 85 79 74 69 66 62 58 55 53 54 57 59 64 70 72 71 72 72 73 78 81 78 75 71 67 58 51 49 56 62 60 57 58 59 58 56 55 56 54 49 43 45 50 50 48 50 52 46 39 36 36 38 40 42 42 42 44 47 48 48 49 49 47 43 38 37 38 38 36 34 29 17
56 56 56 61 63 63 64 65 64 65 67 71 83 89 82 75 78 79 73 66 56 49 48 50 51 55 61 64 66 73 78 80 82 83 81 76 72 69 64 59 59 62 63 61 59 59 58 57 56 56 55 54 51 44 40 41 41 39 41 48 50 43 36 34 35 38 41 41 40 40 40 41 40 37 35 31 26 24 24 21 17 17 15 8 0
71 68 60 59 62 58 57 57 51 45 39 29 45 90 91 87 125 133 110 86 68 52 45 46 48 50 53 57 64 74 82 85 83 81 80 77 73 69 65 61 59 61 63 63 63 64 64 62 60 62 61 57 56 56 48 39 34 32 33 37 39 37 34 33 30 26 27 34 36 34 33 35 32 26 24 25 18 13 15 16 15 14 10 7 5
107 97 74 64 64 56 50 47 39 33 26 0 357 42 86 138 217 161 117 99 93 80 57 50 51 51 51 56 65 76 90 94 89 84 80 75 69 66 65 64 61 58 58 58 55 57 67 69 61 60 64 60 58 62 57 41 36 37 34 32 30 27 27 32 26 16 17 30 32 25 24 29 24 13 6 10 9 1 357 1 5 359 355 4 5
48 71 52 39 40 49 54 48 25 18 9 340 348 14 39 292 322 37 79 89 112 131 122 75 56 59 61 63 66 71 86 101 95 84 75 61 46 47 63 73 75 71 66 62 56 51 56 59 52 47 49 47 42 42 42 43 50 46 35 32 39 37 32 33 28 18 20 31 33 25 23 25 21 13 7 4 2 1 3 9 7 357 354 7 359
19 43 38 18 6 15 21 10 354 2 356 332 333 348 357 350 350 353 342 354 55 138 153 144 87 76 71 74 82 81 83 102 109 96 78 56 43 46 56 59 61 65 66 62 61 62 61 58 51 44 41 36 29 27 29 31 35 32 22 24 41 43 36 34 32 25 23 28 29 25 23 22 19 15 9 2 1 7 14 16 11 5 4 4 356
24 32 28 12 3 359 345 329 304 281 317 308 281 277 325 356 340 326 319 330 345 167 176 177 175 179 167 108 102 97 87 103 121 115 81 61 54 54 58 57 55 57 55 47 48 58 61 56 49 45 43 39 33 30 29 24 20 25 30 30 32 35 34 31 29 26 25 25 24 23 22 20 17 16 11 7 9 13 14 10 5 1 358 355 354
33 39 32 22 16 353 337 339 335 315 309 306 295 300 328 329 309 302 286 279 290 274 250 248 207 184 176 149 125 127 112 99 203 268 255 98 85 70 67 70 64 58 56 52 51 55 58 54 49 44 42 41 37 33 28 20 17 25 29 23 20 30 28 20 20 27 26 21 17 16 16 14 10 6 5 6 7 6 1 356 354 354 352 350 351
11 27 32 20 9 352 334 326 314 301 304 318 327 338 344 334 326 332 329 315 326 328 294 286 264 153 151 154 163 179 204 279 285 269 193 117 97 86 90 91 84 79 76 71 66 65 62 55 51 46 41 38 33 23 19 24 30 25 12 5 13 44 37 26 28 35 30 20 15 16 15 12 5 1 1 3 360 354 350 347 350 356 357 353 350
359 1 8 10 5 349 322 303 312 328 340 346 343 340 338 332 332 344 349 342 339 335 326 330 50 115 140 169 190 202 247 289 291 272 136 110 93 93 99 91 82 83 84 79 76 74 66 58 57 51 43 41 37 20 14 25 35 31 20 18 26 42 41 32 32 34 29 21 15 12 9 6 3 0 1 0 356 351 347 345 346 349 347 344 350
355 349 349 352 351 343 333 339 351 349 344 348 354 357 355 345 339 342 343 333 322 321 327 348 51 95 161 228 232 249 274 285 288 288 165 126 112 99 99 96 91 90 86 83 82 76 69 75 72 46 30 44 49 27 20 31 37 33 29 28 30 36 38 36 35 33 28 21 14 7 3 1 359 358 357 359 357 352 348 349 354 359 357 360 10
333 335 341 346 349 350 351 354 352 345 345 354 357 354 347 336 327 324 318 308 303 303 302 301 275 198 208 227 257 275 275 269 276 285 249 138 131 101 94 108 114 108 98 96 95 82 72 89 81 34 21 39 42 25 31 49 48 40 39 38 37 39 39 35 29 24 18 14 10 6 4 0 357 356 358 359 358 354 353 359 7 11 10 11 15
327 342 351 352 351 354 359 4 3 357 353 350 343 334 327 316 306 301 297 296 305 311 311 316 323 248 184 190 243 280 273 260 270 278 238 137 140 137 122 120 125 124 111 103 103 90 72 74 66 32 29 39 36 31 40 50 49 50 51 46 40 39 34 25 18 14 12 12 8 4 3 1 356 356 358 357 350 344 347 1 11 10 6 5 6
354 2 356 351 356 3 5 5 1 349 337 336 334 330 327 320 314 319 325 328 333 338 336 334 337 337 306 237 250 268 265 260 271 274 210 143 140 142 139 135 134 135 130 116 107 97 78 68 61 49 42 39 33 35 41 43 49 63 62 49 39 33 23 16 12 10 10 11 7 0 358 356 353 352 354 352 349 349 352 0 9 7 1 359 358
9 4 354 355 3 6 357 350 352 350 342 342 341 332 325 327 333 339 343 344 344 345 339 327 323 322 318 315 312 297 273 261 284 301 276 162 152 148 148 146 135 124 121 112 103 105 97 79 69 60 51 43 38 38 38 39 50 63 57 43 28 14 6 5 8 7 7 11 8 2 1 360 356 355 354 354 358 3 2 3 6 4 360 358 358
5 4 6 11 8 4 4 5 7 3 354 349 349 343 337 338 338 332 335 349 355 347 337 331 329 329 332 344 356 345 306 247 254 314 333 147 151 146 138 133 126 118 115 109 102 100 99 91 81 70 57 50 46 37 27 23 33 39 35 28 14 4 360 4 13 9 11 16 4 357 1 5 2 358 357 359 1 3 2 4 7 5 1 357 354
18 7 9 20 13 6 12 15 8 357 352 356 359 354 351 355 359 360 6 15 10 355 344 340 339 338 346 8 22 22 30 77 127 108 74 88 106 111 108 111 118 120 119 115 106 99 95 89 79 71 63 56 49 41 40 62 66 42 25 14 8 4 1 3 7 4 15 31 13 2 2 8 6 2 4 5 2 360 4 9 9 3 358 353 349
33 9 9 27 20 7 11 17 5 352 354 2 4 1 1 5 9 12 16 21 16 7 0 357 360 10 28 40 41 42 50 63 82 102 105 105 104 101 103 113 120 116 108 104 99 93 89 83 74 72 72 64 55 55 71 82 59 34 19 12 9 5 360 351 352 6 32 43 33 23 15 10 10 11 10 9 6 5 7 9 4 356 352 349 345
30 2 16 37 20 356 6 20 10 359 1 4 5 8 10 12 14 17 20 22 21 17 12 11 18 33 45 49 48 46 50 62 82 94 100 105 104 98 95 101 108 107 104 100 98 98 96 85 75 82 93 87 78 76 35 7 10 11 9 5 4 3 1 2 33 57 60 48 37 31 21 15 17 17 13 11 11 8 4 2 358 355 353 351 350
19 358 20 36 15 359 15 22 10 3 8 8 8 16 20 20 22 26 26 22 21 20 19 19 26 36 42 44 45 46 50 61 77 85 86 89 96 99 97 95 97 101 103 100 98 100 99 86 72 69 74 88 124 185 272 336 350 355 357 357 360 7 17 35 66 77 70 49 34 28 21 17 19 17 14 14 11 4 359 2 2 359 354 352 352